Regional Weather Roundup
Issued by NWS

Home | Current Version | Previous Version | Graphics & Text | Print | Product List | Glossary On
Versions: 1 2 3 4 5 6 7 8 9 10 11 12 13 14 15 16 17 18 19 20 21 22 23 24 25 26 27 28 29 30 31 32 33 34 35 36 37 38 39 40 41 42 43 44 45 46 47 48 49 50
000
ASUS43 KIND 210609
RWRIN

WEATHER ROUNDUP FOR INDIANA
NATIONAL WEATHER SERVICE INDIANAPOLIS IN
100 AM EST FRI NOV 21 2014

NOTE: "FAIR" INDICATES FEW OR NO CLOUDS BELOW 12,000 FEET WITH NO
SIGNIFICANT WEATHER AND/OR OBSTRUCTIONS TO VISIBILITY.

* - STATION DOES NOT REPORT WEATHER SUCH AS PRECIPITATION OR FOG.

+ - STATION NOT QUALITY CONTROLLED BY THE NATIONAL WEATHER SERVICE.
    USE DATA WITH CAUTION...ESPECIALLY DEWPOINT AND RELATIVE
    HUMIDITY OBSERVATIONS.

INZ001>003-010>013-019-020-210700-
NORTHWEST INDIANA

CITY           SKY/WX    TMP DP  RH WIND       PRES   REMARKS
GARY /AIRPORT/ CLEAR     20   2  46 NW10G17   30.32R WCI   9
KNOX *+        CLEAR     17   5  59 W12       30.28R WCI   4
LA PORTE +     CLOUDY    24  10  55 NW14G20   30.28R WCI  12
6HR MIN TEMP:  22; 6HR MAX TEMP:  25;

MICHIGAN CITY+ CLOUDY    23   7  50 NW9G18    30.29R WCI  13
MONTICELLO +   CLEAR     15   8  72 W7        30.31R WCI   5
RENSSELAER +   CLEAR     16   9  73 W5        30.32R WCI   9
VALPARAISO     PTCLDY    16   4  59 W8        30.30R WCI   5
6HR MIN TEMP:  16; 6HR MAX TEMP:  23;


$$

LMZ046-743>745-210700-
SOUTHERN LAKE MICHIGAN

STATION/POSITION TIME  TEMP WIND        PRES
                       AIR  DIR/SP/G
                 (UTC) (F)  (DEG/KT/KT) (MB)
MICHIGAN CITY    0600   23  290/ 20/ 24   N/A

$$

INZ004-005-014>016-021>024-210700-
NORTH CENTRAL INDIANA

CITY           SKY/WX    TMP DP  RH WIND       PRES   REMARKS
GOSHEN         CLOUDY    22  10  60 NW12      30.24R WCI  10
6HR MIN TEMP:  19; 6HR MAX TEMP:  22;

LOGANSPORT +   CLEAR     18   7  62 W7        30.31R WCI   8
PERU/GRISSOM   CLEAR     15  10  77 W7        30.28R WCI   6
6HR MIN TEMP:  15; 6HR MAX TEMP:  22;

ROCHESTER +    CLEAR     19   9  63 W8        30.29R WCI   9
SOUTH BEND     CLOUDY    23   9  55 NW16      30.26R WCI  10
6HR MIN TEMP:  20; 6HR MAX TEMP:  25;

WARSAW +       PTCLDY    18   9  68 W8        30.25R WCI   7

$$

INZ006>009-017-018-025>027-210700-
NORTHEAST INDIANA

CITY           SKY/WX    TMP DP  RH WIND       PRES   REMARKS
ANGOLA *+      PTCLDY    18  10  73 NW5       30.21R WCI  11
AUBURN +       CLEAR     18   7  62 W3        30.23R
FORT WAYNE     CLEAR     17   7  64 W13       30.26R WCI   4
6HR MIN TEMP:  17; 6HR MAX TEMP:  21;

HUNTINGTON +   CLEAR     17   7  63 W6        30.27R WCI   9
6HR MIN TEMP:  17; 6HR MAX TEMP:  24;


$$

INZ028-029-035-036-043>045-051>053-210700-
WEST CENTRAL INDIANA

CITY           SKY/WX    TMP DP  RH WIND       PRES   REMARKS
GREENCASTLE +  CLEAR     23  10  58 NW5       30.32R WCI  17
LAFAYETTE      CLEAR     16   7  67 NW7       30.33R WCI   6
6HR MIN TEMP:  16; 6HR MAX TEMP:  24;

TERRE HAUTE    CLEAR     22  12  65 NW5       30.35R WCI  16
6HR MIN TEMP:  22; 6HR MAX TEMP:  26;


$$

INZ030>032-037>040-046>048-054>057-064-065-210700-
CENTRAL INDIANA

CITY           SKY/WX    TMP DP  RH WIND       PRES   REMARKS
CP ATTERBURY + CLEAR     23  16  74 NW5       30.32R WCI  17
FRANKFORT +    CLEAR     17   9  69 W8        30.31R WCI   7
GREENWOOD *+   CLEAR     21   9  58 NW5       30.31R WCI  15
INDIANAPOLIS   CLEAR     19   9  65 NW7       30.30R WCI  10
6HR MIN TEMP:  19; 6HR MAX TEMP:  25;

-EAGLE CREEK   CLEAR     21   9  59 NW7       30.30R WCI  12
6HR MIN TEMP:  21; 6HR MAX TEMP:  27;

KOKOMO *+      CLEAR     16   7  67 NW9       30.29R WCI   4
MARION +       CLEAR     15   7  70 NW9       30.28R WCI   3
MT COMFORT *+  CLEAR     19   3  49 NW8       30.30R WCI   9
SHELBYVILLE    FAIR      22  12  65 NW7       30.30R WCI  13
6HR MIN TEMP:  21; 6HR MAX TEMP:  25;

ZIONSVILLE +   CLEAR     17   7  65 NW5       30.30R WCI   9
6HR MIN TEMP:  17; 6HR MAX TEMP:  27;


$$

INZ033-034-041-042-049-050-058-059-210700-
EAST CENTRAL INDIANA

CITY           SKY/WX    TMP DP  RH WIND       PRES   REMARKS
MUNCIE         CLEAR     17   8  67 W8        30.27R WCI   7
6HR MIN TEMP:  17; 6HR MAX TEMP:  26;


$$

INZ060-061-067>069-081>083-085>088-210700-
SOUTHWEST INDIANA

CITY           SKY/WX    TMP DP  RH WIND       PRES   REMARKS
EVANSVILLE     CLEAR     23  18  81 CALM      30.36R
6HR MIN TEMP:  23; 6HR MAX TEMP:  30;

HUNTINGBURG *+ CLEAR     19  16  86 S5        30.35R WCI  13
6HR MIN TEMP:  19; 6HR MAX TEMP:  28;

WASHINGTON +   CLEAR     22  18  85 NW6       30.34R WCI  14
6HR MIN TEMP:  21; 6HR MAX TEMP:  28;


$$

INZ062-063-066-070>080-084-089>092-210700-
SOUTH CENTRAL AND SOUTHEAST INDIANA

CITY           SKY/WX    TMP DP  RH WIND       PRES   REMARKS
BLOOMINGTON    CLEAR     23  15  71 VRB3      30.31R
6HR MIN TEMP:  20; 6HR MAX TEMP:  26;

NORTH VERNON + CLEAR     23  18  80 CALM      30.32
SEYMOUR +      CLEAR     21  14  73 CALM      30.33

$$




USA.gov is the U.S. government's official web portal to all federal, state and local government web resources and services.